Weather History for KMHT - May, 2014

Change the Weather History Date:

Tuesday, May 6, 2014

  Actual Average Record
Temperature  
Mean Temperature 52 °F -  
Max Temperature 62 °F 66 °F 89 °F (1949)
Min Temperature 43 °F 44 °F 27 °F (1961)
Degree Days  
Heating Degree Days 12    
Cooling Degree Days 0    
Growing Degree Days 2 (Base 50)    
Moisture  
Dew Point 28 °F    
Average Humidity 38    
Maximum Humidity 80    
Minimum Humidity 21    
Precipitation  
Precipitation 0.00 in 0.10 in 1.36 in (1998)
Month to date precipitation 0.66  
Year to date precipitation 14.65  
Snow  
Snow 0.00 in - - ()
Month to date snowfall  
Since 1 July snowfall  
Snow Depth -    
Sea Level Pressure  
Sea Level Pressure 29.93 in    
Wind  
Wind Speed 8 mph (NW)    
Max Wind Speed 21 mph    
Max Gust Speed 29 mph    
Visibility 10 miles    
Events      
T = Trace of Precipitation, MM = Missing Value Source: NWS Daily Summary

Daily Weather History Graph

Daily Weather History Graph

Search for Another Location

Airport or City:

Trip Planner

Search our weather history database for the weather conditions in past years. The results will help you decide how hot, cold, wet, or windy it might be!

Date:

Astronomy

May. 06, 2014 Rise Set
Actual Time 5:33 AM EDT 7:52 PM EDT
Civil Twilight 5:01 AM EDT 8:23 PM EDT
Nautical Twilight 4:22 AM EDT 9:03 PM EDT
Astronomical Twilight 3:39 AM EDT 9:46 PM EDT
Moon 11:48 AM EDT (5/6) 1:08 AM EDT (5/6)
Length of Visible Light 15h 22m
Length of Day
14h 19m
Waxing Crescent, 46% of the Moon is Illuminated
May 6
Waxing Crescent
May 6
First Quarter
May 14
Full
May 21
Last Quarter
May 28
New

Hourly Weather History & Observations

Time (EDT) Temp. Windchill Dew Point Humidity Pressure Visibility Wind Dir Wind Speed Gust Speed Precip Events Conditions
12:53 AM 48.0 °F - 36.0 °F 63% 29.90 in 10.0 mi NW 4.6 mph - N/A   Mostly Cloudy
1:53 AM 46.9 °F - 36.0 °F 66% 29.89 in 10.0 mi Calm Calm - N/A   Mostly Cloudy
2:53 AM 46.9 °F - 36.0 °F 66% 29.88 in 10.0 mi Calm Calm - N/A   Mostly Cloudy
3:53 AM 43.0 °F 41.3 °F 37.0 °F 80% 29.88 in 10.0 mi SSW 3.5 mph - N/A   Mostly Cloudy
7:53 AM 51.1 °F - 36.0 °F 56% 29.91 in 10.0 mi WNW 6.9 mph - N/A   Mostly Cloudy
8:53 AM 53.1 °F - 34.0 °F 48% 29.91 in 10.0 mi WNW 10.4 mph 18.4 mph N/A   Mostly Cloudy
10:53 AM 59.0 °F - 30.0 °F 33% 29.89 in 10.0 mi NW 11.5 mph 19.6 mph N/A   Mostly Cloudy
11:53 AM 60.1 °F - 26.1 °F 27% 29.89 in 10.0 mi NNW 16.1 mph 27.6 mph N/A   Mostly Cloudy
12:53 PM 62.1 °F - 27.0 °F 26% 29.87 in 10.0 mi NNW 16.1 mph 23.0 mph N/A   Mostly Cloudy
1:53 PM 61.0 °F - 25.0 °F 25% 29.87 in 10.0 mi NNW 17.3 mph 27.6 mph N/A   Mostly Cloudy
2:53 PM 60.1 °F - 26.1 °F 27% 29.88 in 10.0 mi NNW 16.1 mph 24.2 mph 0.00 in   Mostly Cloudy
3:53 PM 60.1 °F - 23.0 °F 24% 29.88 in 10.0 mi NW 18.4 mph 26.5 mph N/A   Mostly Cloudy
4:53 PM 61.0 °F - 23.0 °F 23% 29.89 in 10.0 mi NW 13.8 mph 24.2 mph N/A   Scattered Clouds
5:53 PM 62.1 °F - 21.0 °F 21% 29.91 in 10.0 mi NNW 20.7 mph 28.8 mph N/A   Scattered Clouds
6:53 PM 61.0 °F - 19.9 °F 21% 29.93 in 10.0 mi NW 12.7 mph 23.0 mph N/A   Scattered Clouds
7:53 PM 57.9 °F - 23.0 °F 26% 29.97 in 10.0 mi North 15.0 mph - N/A   Partly Cloudy
8:53 PM 55.9 °F - 24.1 °F 29% 30.01 in 10.0 mi NNW 13.8 mph - N/A   Clear
9:53 PM 54.0 °F - 24.1 °F 31% 30.04 in 10.0 mi NNW 8.1 mph - N/A   Clear
10:53 PM 52.0 °F - 25.0 °F 35% 30.06 in 10.0 mi NW 6.9 mph - N/A   Clear
11:53 PM 51.1 °F - 25.0 °F 36% 30.07 in 10.0 mi NNW 5.8 mph - N/A   Clear